CW9663 Weather Reports


Display with metric or nautical units.
time (UTC)temp
F
wind
direction
speed
MPH
gust
MPH
rain 1hr
in
rain 24hr
in
rain mn
in
humidity
%
barometer
mb
20180619121841 74 200 3.0 4.0 0.00 0.25 0.03 94 1014.4
20180619121348 74 254 2.0 3.0 0.00 0.25 0.03 94 1014.4
20180619120852 74 254 3.0 3.0 0.00 0.25 0.03 94 1014.5
20180619120343 74 254 2.0 3.0 0.00 0.25 0.03 94 1014.5
20180619115848 74 307 0.0 2.0 0.00 0.25 0.03 94 1014.6
20180619115352 74 307 0.0 2.0 0.00 0.25 0.03 94 1014.4
20180619114900 74 307 0.0 1.0 0.00 0.25 0.03 94 1014.4
20180619114351 74 307 0.0 2.0 0.00 0.25 0.03 94 1014.4
20180619113839 74 307 1.0 3.0 0.00 0.25 0.03 95 1014.3
20180619113352 73 307 1.0 3.0 0.00 0.25 0.03 96 1014.3
20180619112851 73 307 1.0 2.0 0.00 0.25 0.03 96 1014.2
20180619112355 73 307 0.0 2.0 0.00 0.25 0.03 96 1014.3
20180619111850 72 307 0.0 0.0 0.00 0.25 0.03 96 1014.2
20180619111358 72 307 0.0 4.0 0.00 0.25 0.03 96 1014.3
20180619110858 72 307 1.0 4.0 0.00 0.25 0.03 96 1014.3
20180619110347 72 271 1.0 2.0 0.00 0.25 0.03 96 1014.3
20180619105855 72 271 0.0 3.0 0.00 0.25 0.03 96 1014.5
20180619105341 72 271 2.0 3.0 0.00 0.25 0.03 96 1014.6
20180619104843 72 271 1.0 3.0 0.00 0.25 0.03 97 1014.7
20180619104351 72 271 2.0 4.0 0.00 0.25 0.03 97 1014.7
20180619103838 72 271 3.0 5.0 0.00 0.25 0.03 97 1014.7
20180619103346 72 271 3.0 5.0 0.00 0.25 0.03 97 1014.7
20180619102851 72 271 2.0 5.0 0.00 0.25 0.03 97 1014.7
20180619102339 72 271 3.0 5.0 0.00 0.25 0.03 97 1014.7
20180619101858 72 283 3.0 4.0 0.00 0.25 0.03 97 1014.7
20180619101348 72 261 3.0 4.0 0.00 0.25 0.03 97 1014.5
20180619100854 72 251 3.0 4.0 0.00 0.25 0.03 97 1014.4
20180619100401 72 279 2.0 3.0 0.00 0.25 0.03 97 1014.3
20180619095857 72 279 2.0 3.0 0.00 0.25 0.03 97 1014.3
20180619095359 72 279 0.0 3.0 0.00 0.25 0.03 97 1014.2
20180619094841 72 279 2.0 3.0 0.00 0.25 0.03 96 1014.2
20180619094345 72 279 1.0 3.0 0.00 0.25 0.03 96 1014.2
20180619093851 72 279 1.0 3.0 0.00 0.25 0.03 96 1014.2
20180619093343 72 279 1.0 2.0 0.00 0.25 0.03 96 1014.2
20180619092858 72 279 0.0 2.0 0.00 0.25 0.03 96 1014.3
20180619092340 72 279 0.0 0.0 0.01 0.25 0.03 96 1014.1
20180619091856 72 279 0.0 2.0 0.01 0.25 0.03 96 1013.9
20180619091339 72 279 0.0 2.0 0.01 0.25 0.03 96 1013.8
20180619090844 72 279 1.0 2.0 0.01 0.25 0.03 95 1013.8
20180619090350 72 279 0.0 1.0 0.01 0.25 0.03 95 1013.9
20180619085850 72 279 0.0 2.0 0.01 0.25 0.03 95 1013.9
20180619085341 72 279 0.0 3.0 0.01 0.25 0.03 95 1013.9
20180619084839 72 279 1.0 4.0 0.01 0.25 0.03 95 1014.0
20180619084347 72 277 3.0 5.0 0.01 0.25 0.03 95 1014.0
20180619083848 72 310 3.0 7.0 0.01 0.25 0.03 96 1014.1
20180619083352 72 324 5.0 7.0 0.01 0.25 0.03 96 1014.0
20180619082850 72 303 3.0 9.0 0.01 0.25 0.03 96 1014.0
20180619082354 72 303 3.0 9.0 0.00 0.24 0.02 96 1014.0
20180619081849 72 294 4.0 6.0 0.00 0.24 0.02 96 1014.0
20180619081355 72 294 4.0 6.0 0.00 0.24 0.02 96 1014.0
20180619080856 72 293 3.0 6.0 0.00 0.24 0.02 96 1013.9
20180619080354 72 292 3.0 6.0 0.00 0.24 0.02 96 1013.9
20180619075840 72 281 3.0 5.0 0.00 0.24 0.02 96 1013.9
20180619075344 72 281 2.0 2.0 0.00 0.24 0.02 96 1013.9
20180619074844 72 281 0.0 0.0 0.00 0.24 0.02 95 1013.7
20180619074348 72 281 0.0 0.0 0.00 0.24 0.02 95 1013.8
20180619073849 72 281 0.0 2.0 0.01 0.24 0.02 95 1013.7
20180619073346 73 281 0.0 3.0 0.01 0.24 0.02 95 1013.8
20180619072846 73 281 2.0 3.0 0.01 0.24 0.02 95 1013.8
20180619072352 73 281 3.0 3.0 0.01 0.24 0.02 95 1013.8
20180619071844 73 281 2.0 3.0 0.01 0.24 0.02 95 1013.8
20180619071347 73 259 1.0 3.0 0.01 0.24 0.02 94 1013.8
20180619070851 73 252 2.0 4.0 0.01 0.24 0.02 94 1013.8
20180619070358 73 238 3.0 4.0 0.01 0.24 0.02 94 1013.9
20180619065859 73 299 2.0 4.0 0.01 0.24 0.02 93 1014.0
20180619065350 74 305 3.0 5.0 0.01 0.24 0.02 93 1013.9
20180619064855 74 315 4.0 6.0 0.01 0.24 0.02 93 1014.0
20180619064359 74 298 5.0 6.0 0.01 0.24 0.02 93 1014.1
20180619063841 74 285 4.0 6.0 0.00 0.23 0.01 93 1014.1
20180619063353 74 285 3.0 6.0 0.00 0.23 0.01 93 1014.1
20180619062841 74 321 4.0 6.0 0.00 0.23 0.01 92 1014.1
20180619062348 74 309 5.0 7.0 0.00 0.23 0.01 92 1014.1
20180619061850 74 309 6.0 7.0 0.00 0.23 0.01 92 1014.1
20180619061356 74 288 3.0 7.0 0.00 0.23 0.01 92 1014.1
20180619060839 74 309 3.0 7.0 0.00 0.23 0.01 92 1014.1
20180619060349 74 307 5.0 7.0 0.00 0.23 0.01 92 1014.2
20180619055851 74 315 4.0 7.0 0.00 0.23 0.01 91 1013.9
20180619055355 74 317 5.0 9.0 0.00 0.23 0.01 91 1014.0
20180619054848 74 308 4.0 9.0 0.00 0.23 0.01 91 1013.9
20180619054353 74 305 6.0 10.0 0.00 0.23 0.01 91 1014.0
20180619053900 74 309 7.0 10.0 0.00 0.23 0.01 90 1014.0
20180619053347 74 309 5.0 9.0 0.00 0.23 0.01 90 1013.9
20180619052855 74 309 6.0 9.0 0.00 0.23 0.01 90 1013.9
20180619052359 74 295 4.0 12.0 0.00 0.23 0.01 90 1013.9
20180619051846 75 302 6.0 12.0 0.00 0.23 0.01 90 1013.9
20180619051351 75 288 6.0 12.0 0.00 0.23 0.01 90 1014.0
20180619050840 74 296 9.0 12.0 0.01 0.23 0.01 91 1014.0
20180619050344 74 280 6.0 10.0 0.01 0.23 0.01 91 1013.9
20180619045849 74 284 7.0 10.0 0.01 0.23 0.01 90 1013.7
20180619045358 74 295 7.0 11.0 0.01 0.23 0.01 91 1013.9
20180619044839 74 267 7.0 11.0 0.02 0.23 0.01 91 1013.9
20180619044354 74 281 8.0 10.0 0.04 0.23 0.01 91 1013.9
20180619043851 74 289 5.0 7.0 0.06 0.23 0.01 90 1014.0
20180619043346 74 264 6.0 10.0 0.16 0.23 0.01 91 1014.0
20180619042857 74 270 7.0 10.0 0.16 0.23 0.01 91 1014.1
20180619042340 73 252 7.0 10.0 0.16 0.23 0.01 90 1014.3
20180619041839 73 250 6.0 9.0 0.16 0.23 0.01 90 1014.3
20180619041353 73 255 6.0 9.0 0.16 0.23 0.01 91 1014.2
20180619040854 73 246 6.0 12.0 0.15 0.22 0.00 91 1014.3
20180619040347 73 236 5.0 12.0 0.16 0.22 0.22 91 1014.3
20180619035844 73 238 10.0 18.0 0.21 0.22 0.22 90 1014.4
20180619035349 73 237 12.0 18.0 0.22 0.22 0.22 90 1014.4
20180619034857 73 250 13.0 20.0 0.22 0.22 0.22 91 1014.1
20180619034345 73 232 14.0 24.0 0.20 0.20 0.20 90 1014.3
20180619033842 74 258 19.0 24.0 0.17 0.17 0.17 90 1014.6
20180619033350 74 249 18.0 32.0 0.08 0.08 0.08 90 1014.9
20180619032850 74 266 18.0 32.0 0.07 0.07 0.07 91 1014.9
20180619032359 74 277 9.0 13.0 0.07 0.07 0.07 92 1014.5
20180619031851 74 296 3.0 4.0 0.07 0.07 0.07 91 1014.2
20180619031340 75 5 0.0 4.0 0.07 0.07 0.07 91 1014.2
20180619030856 75 5 2.0 16.0 0.07 0.07 0.07 88 1014.3
20180619030358 76 325 6.0 24.0 0.06 0.06 0.06 85 1014.5
20180619025840 78 331 14.0 26.0 0.01 0.01 0.01 83 1014.9
20180619025353 79 289 18.0 26.0 0.00 0.00 0.00 82 1014.9
20180619024842 79 295 19.0 21.0 0.00 0.00 0.00 82 1014.7
20180619024348 80 301 13.0 16.0 0.00 0.00 0.00 81 1014.3
20180619023855 80 343 6.0 11.0 0.00 0.00 0.00 81 1014.2
20180619023359 80 304 5.0 6.0 0.00 0.00 0.00 80 1013.7
20180619022850 80 245 3.0 5.0 0.00 0.00 0.00 80 1013.5
20180619022351 80 244 3.0 6.0 0.00 0.00 0.00 79 1013.3
20180619021850 80 241 5.0 6.0 0.00 0.00 0.00 78 1013.5
20180619021354 80 265 4.0 6.0 0.00 0.00 0.00 78 1013.4
20180619020855 80 259 4.0 8.0 0.00 0.00 0.00 77 1013.5
20180619020347 80 257 4.0 8.0 0.00 0.00 0.00 77 1013.6
20180619015844 81 290 5.0 7.0 0.00 0.00 0.00 76 1013.6
20180619015348 81 281 6.0 7.0 0.00 0.00 0.00 76 1013.3
20180619014842 81 265 5.0 7.0 0.00 0.00 0.00 76 1013.3
20180619014348 81 268 5.0 7.0 0.00 0.00 0.00 75 1013.1
20180619013844 81 249 4.0 9.0 0.00 0.00 0.00 75 1013.1
20180619013349 81 258 6.0 9.0 0.00 0.00 0.00 74 1012.9
20180619012847 81 248 5.0 11.0 0.00 0.00 0.00 74 1012.8
20180619012350 81 255 5.0 11.0 0.00 0.00 0.00 73 1012.9
20180619011852 81 265 7.0 10.0 0.00 0.00 0.00 73 1012.9
20180619011353 82 267 7.0 8.0 0.00 0.00 0.00 71 1012.7
20180619010857 82 257 5.0 9.0 0.00 0.00 0.00 70 1012.7
20180619010341 82 273 6.0 11.0 0.00 0.00 0.00 69 1012.7
20180619005841 83 269 5.0 12.0 0.00 0.00 0.00 67 1012.7
20180619005348 83 276 8.0 15.0 0.00 0.00 0.00 66 1012.7
20180619004845 84 254 10.0 18.0 0.00 0.00 0.00 64 1012.8
20180619004348 85 261 10.0 19.0 0.00 0.00 0.00 63 1012.8
20180619003848 85 250 14.0 19.0 0.00 0.00 0.00 65 1012.9
20180619003357 86 268 15.0 19.0 0.00 0.00 0.00 67 1012.9
20180619002841 86 248 4.0 12.0 0.00 0.00 0.00 68 1012.9
20180619002349 86 259 6.0 14.0 0.00 0.00 0.00 67 1013.1
20180619001845 87 248 8.0 14.0 0.00 0.00 0.00 66 1013.0
20180619001349 87 263 7.0 13.0 0.00 0.00 0.00 65 1013.1
20180619001003 87 258 11.0 14.0 0.00 0.00 0.00 64 1013.0
20180619000354 87 252 9.0 20.0 0.00 0.00 0.00 64 1012.7
20180618235850 88 246 11.0 20.0 0.00 0.00 0.00 63 1012.6
20180618235353 88 258 12.0 15.0 0.00 0.00 0.00 63 1012.6
20180618234849 89 238 10.0 15.0 0.00 0.00 0.00 62 1012.6
20180618234354 89 242 11.0 15.0 0.00 0.00 0.00 62 1012.6
20180618233858 89 268 10.0 16.0 0.00 0.00 0.00 62 1012.6
20180618233341 90 246 11.0 18.0 0.00 0.00 0.00 61 1012.6
20180618232840 90 249 13.0 18.0 0.00 0.00 0.00 60 1012.6
20180618232354 90 254 11.0 19.0 0.00 0.00 0.00 61 1012.7
20180618231847 90 276 11.0 19.0 0.00 0.00 0.00 60 1012.7
20180618231356 90 250 13.0 19.0 0.00 0.00 0.00 60 1012.8
20180618230856 90 234 13.0 20.0 0.00 0.00 0.00 59 1012.7
20180618230358 90 246 8.0 21.0 0.00 0.00 0.00 59 1012.6
20180618225858 90 233 16.0 21.0 0.00 0.00 0.00 58 1012.6
20180618225340 91 248 14.0 19.0 0.00 0.00 0.00 58 1012.6
20180618224839 91 236 14.0 22.0 0.00 0.00 0.00 58 1012.5
20180618224349 91 250 13.0 22.0 0.00 0.00 0.00 57 1012.6
20180618223849 91 252 15.0 22.0 0.00 0.00 0.00 57 1012.6
20180618223353 91 261 16.0 22.0 0.00 0.00 0.00 56 1012.5
20180618222853 91 224 17.0 22.0 0.00 0.00 0.00 56 1012.5
20180618222354 91 239 14.0 20.0 0.00 0.00 0.00 56 1012.5
20180618221850 91 236 16.0 21.0 0.00 0.00 0.00 56 1012.4
20180618221340 91 224 16.0 21.0 0.00 0.00 0.00 56 1012.4
20180618220849 91 249 12.0 20.0 0.00 0.00 0.00 57 1012.4
20180618220354 91 229 13.0 18.0 0.00 0.00 0.00 56 1012.4
20180618215854 91 273 14.0 19.0 0.00 0.00 0.00 56 1012.4
20180618215340 92 234 14.0 24.0 0.00 0.00 0.00 55 1012.4
20180618214841 92 233 15.0 24.0 0.00 0.00 0.00 56 1012.5
20180618214347 92 218 16.0 22.0 0.00 0.00 0.00 54 1012.5
20180618213853 92 254 15.0 22.0 0.00 0.00 0.00 54 1012.6
20180618213354 92 234 16.0 22.0 0.00 0.00 0.00 56 1012.5
20180618212858 92 236 11.0 19.0 0.00 0.00 0.00 56 1012.5
20180618212339 92 217 14.0 22.0 0.00 0.00 0.00 54 1012.5
20180618211853 92 237 14.0 23.0 0.00 0.00 0.00 54 1012.5
20180618211344 92 251 19.0 23.0 0.00 0.00 0.00 51 1012.6
20180618210844 93 219 12.0 21.0 0.00 0.00 0.00 55 1012.6
20180618210350 93 255 19.0 21.0 0.00 0.00 0.00 52 1012.7
20180618205849 93 246 13.0 21.0 0.00 0.00 0.00 54 1012.7
20180618205355 93 236 12.0 21.0 0.00 0.00 0.00 54 1012.9
20180618204856 93 215 16.0 23.0 0.00 0.00 0.00 55 1013.1
20180618204339 92 259 17.0 23.0 0.00 0.00 0.00 53 1013.1
20180618203848 93 245 16.0 20.0 0.00 0.00 0.00 54 1013.1
20180618203354 92 261 16.0 20.0 0.00 0.00 0.00 54 1013.1
20180618202856 92 223 10.0 17.0 0.00 0.00 0.00 59 1013.1
20180618202341 92 240 13.0 17.0 0.00 0.00 0.00 57 1013.5
20180618201859 92 246 14.0 17.0 0.00 0.00 0.00 56 1013.5
20180618201345 92 237 13.0 17.0 0.00 0.00 0.00 57 1013.5
20180618200851 93 248 16.0 18.0 0.00 0.00 0.00 57 1013.6
20180618200352 92 234 12.0 18.0 0.00 0.00 0.00 57 1013.6
20180618195853 93 247 14.0 19.0 0.00 0.00 0.00 58 1013.7
20180618195340 93 252 14.0 19.0 0.00 0.00 0.00 55 1013.8
20180618194841 92 238 13.0 17.0 0.00 0.00 0.00 56 1013.7
20180618194342 93 273 13.0 21.0 0.00 0.00 0.00 57 1013.9
20180618193849 93 245 16.0 21.0 0.00 0.00 0.00 56 1013.8
20180618193358 93 248 11.0 19.0 0.00 0.00 0.00 58 1013.9
20180618192840 92 247 15.0 19.0 0.00 0.00 0.00 57 1014.1
20180618192344 92 248 16.0 20.0 0.00 0.00 0.00 57 1014.1
20180618191846 92 258 15.0 20.0 0.00 0.00 0.00 58 1014.1
20180618191346 92 250 13.0 17.0 0.00 0.00 0.00 60 1014.2
20180618190854 92 258 11.0 17.0 0.00 0.00 0.00 63 1014.2
20180618190339 92 213 14.0 19.0 0.00 0.00 0.00 58 1014.3
20180618185852 92 236 13.0 19.0 0.00 0.00 0.00 58 1014.4
20180618185357 92 261 16.0 19.0 0.00 0.00 0.00 58 1014.5
20180618184853 92 250 14.0 19.0 0.00 0.00 0.00 58 1014.4
20180618184356 92 254 15.0 20.0 0.00 0.00 0.00 57 1014.6
20180618183855 92 239 16.0 20.0 0.00 0.00 0.00 57 1014.6
20180618183348 92 257 12.0 19.0 0.00 0.00 0.00 60 1014.8
20180618182849 92 261 11.0 19.0 0.00 0.00 0.00 57 1014.8
20180618182352 92 231 14.0 21.0 0.00 0.00 0.00 57 1014.7
20180618181853 92 251 16.0 21.0 0.00 0.00 0.00 59 1014.8
20180618181356 92 242 13.0 18.0 0.00 0.00 0.00 59 1014.8
20180618180844 91 234 10.0 17.0 0.00 0.00 0.00 61 1014.9
20180618180355 92 223 14.0 17.0 0.00 0.00 0.00 60 1014.9
20180618175849 91 221 10.0 16.0 0.00 0.00 0.00 59 1014.9
20180618175337 91 259 11.0 18.0 0.00 0.00 0.00 61 1015.0
20180618174853 91 235 14.0 18.0 0.00 0.00 0.00 61 1014.9
20180618174358 91 240 12.0 18.0 0.00 0.00 0.00 63 1015.1
20180618173849 91 236 13.0 17.0 0.00 0.00 0.00 62 1015.2
20180618173353 91 255 13.0 17.0 0.00 0.00 0.00 60 1015.3
20180618172855 91 254 13.0 18.0 0.00 0.00 0.00 63 1015.3
20180618172359 91 265 14.0 18.0 0.00 0.00 0.00 62 1015.4
20180618171845 90 246 12.0 16.0 0.00 0.00 0.00 62 1015.5
20180618171349 90 255 14.0 17.0 0.00 0.00 0.00 62 1015.6
20180618170855 90 246 13.0 17.0 0.00 0.00 0.00 63 1015.6
20180618170341 90 247 12.0 17.0 0.00 0.00 0.00 61 1015.6
20180618165845 90 238 14.0 17.0 0.00 0.00 0.00 60 1015.7
20180618165351 90 265 12.0 17.0 0.00 0.00 0.00 61 1015.8
20180618164848 90 255 14.0 17.0 0.00 0.00 0.00 65 1016.0
20180618164339 90 238 13.0 15.0 0.00 0.00 0.00 64 1015.9
20180618163839 90 238 13.0 19.0 0.00 0.00 0.00 64 1016.1
20180618163346 90 260 13.0 20.0 0.00 0.00 0.00 63 1016.2
20180618162848 90 258 14.0 20.0 0.00 0.00 0.00 62 1016.2
20180618162352 90 268 11.0 18.0 0.00 0.00 0.00 63 1016.1
20180618161849 90 284 14.0 18.0 0.00 0.00 0.00 62 1016.1
20180618161339 90 249 8.0 15.0 0.00 0.00 0.00 62 1016.2
20180618160841 90 256 9.0 18.0 0.00 0.00 0.00 63 1016.3
20180618160349 89 277 13.0 18.0 0.00 0.00 0.00 65 1016.1
20180618155855 89 274 14.0 19.0 0.00 0.00 0.00 63 1016.3
20180618155348 89 269 14.0 21.0 0.00 0.00 0.00 63 1016.2
20180618154840 89 261 11.0 21.0 0.00 0.00 0.00 63 1016.2
20180618154349 88 257 12.0 21.0 0.00 0.00 0.00 63 1016.3
20180618153853 88 264 14.0 21.0 0.00 0.00 0.00 62 1016.3
20180618153349 88 252 15.0 21.0 0.00 0.00 0.00 63 1016.4
20180618152850 88 261 14.0 18.0 0.00 0.00 0.00 64 1016.3
20180618152353 88 257 11.0 18.0 0.00 0.00 0.00 67 1016.3
20180618151851 88 267 14.0 21.0 0.00 0.00 0.00 66 1016.4
20180618151356 87 260 13.0 21.0 0.00 0.00 0.00 68 1016.3
20180618150846 87 264 18.0 21.0 0.00 0.00 0.00 67 1016.3
20180618150341 87 267 17.0 21.0 0.00 0.00 0.00 67 1016.3
20180618145847 87 246 14.0 19.0 0.00 0.00 0.00 67 1016.4
20180618145351 87 252 14.0 19.0 0.00 0.00 0.00 68 1016.4
20180618144853 87 242 11.0 19.0 0.00 0.00 0.00 70 1016.4
20180618144339 87 263 15.0 19.0 0.00 0.00 0.00 68 1016.3
20180618143851 87 248 10.0 18.0 0.00 0.00 0.00 71 1016.3
20180618143341 86 263 10.0 18.0 0.00 0.00 0.00 69 1016.3
20180618142859 86 266 15.0 18.0 0.00 0.00 0.00 70 1016.3
20180618142344 86 254 13.0 17.0 0.00 0.00 0.00 72 1016.3
20180618141840 85 252 14.0 17.0 0.00 0.00 0.00 72 1016.3
20180618141355 85 269 10.0 18.0 0.00 0.00 0.00 73 1016.3
20180618140857 85 275 12.0 18.0 0.00 0.00 0.00 72 1016.3
20180618140348 85 243 10.0 16.0 0.00 0.00 0.00 74 1016.3
20180618135852 85 260 11.0 17.0 0.00 0.00 0.00 75 1016.2
20180618135354 84 240 12.0 17.0 0.00 0.00 0.00 74 1016.3
20180618134852 84 248 10.0 17.0 0.00 0.00 0.00 76 1016.3
20180618134340 84 240 11.0 17.0 0.00 0.00 0.00 75 1016.3
20180618133844 83 239 13.0 15.0 0.00 0.00 0.00 76 1016.4
20180618133350 83 234 11.0 17.0 0.00 0.00 0.00 76 1016.4
20180618132852 83 254 14.0 17.0 0.00 0.00 0.00 76 1016.2
20180618132355 83 251 11.0 15.0 0.00 0.00 0.00 79 1016.4
20180618131852 82 243 8.0 19.0 0.00 0.00 0.00 79 1016.3
20180618131357 82 254 10.0 19.0 0.00 0.00 0.00 79 1016.2
20180618130840 82 261 9.0 14.0 0.00 0.00 0.00 79 1016.2
20180618130353 81 255 8.0 15.0 0.00 0.00 0.00 80 1016.0
20180618125857 81 248 6.0 15.0 0.00 0.00 0.00 81 1016.1
20180618125341 81 234 6.0 16.0 0.00 0.00 0.00 82 1016.0
20180618124841 80 250 9.0 16.0 0.00 0.00 0.00 83 1016.1
20180618124352 80 248 9.0 13.0 0.00 0.00 0.00 82 1016.1
20180618123850 80 239 9.0 13.0 0.00 0.00 0.00 83 1016.0
20180618123356 80 232 10.0 12.0 0.00 0.00 0.00 83 1016.0
20180618122852 79 246 9.0 13.0 0.00 0.00 0.00 84 1015.9
20180618122356 79 242 9.0 13.0 0.00 0.00 0.00 84 1016.0